HAWK-A

Satellite information

Favourite Embed

Satellite Type and Status

PAYLOADIN ORBIT

Key statistics

Satellite HAWK-A at a glance.

Uptime

2568

Days in orbit

Revolutions

≈ 15.2

Per day

Orbit

SSO

Sun Synchronous Orbit

Inclination

97.4

Latest

Satellite identification and parameters

Extended collection of information and parameters for HAWK-A.

Object identification

Identified? True

Debris? False

Object name: HAWK-A

International designator: 2018-099H

Object number (NORAD): 43765

Object ID (CCSDS): 43765

Country: UNITED STATES OF AMERICA (US)

Current information (Y/N): Y

RCS size: MEDIUM

Orbital parameters

Period: 94.639 minutes

Inclination: 97.4213 deg

SMA: 6879.254 km

Apoapsis: 526.0 km

Periapsis: 476.238 km

RAAN: 35.8856 deg

Eccentricy: 0.0036168

Argument of periapsis: 221.0134 deg

Mean anomaly: 138.8381 deg

Mean motion: 15.21565834 rev/day

Mean motion (dot): 0.00012149 rev/day2

B* drag term: 0.00053212571 1/REarth

Two-line elements (TLE)

Creation date: Dec. 12, 2025, 10:14 a.m.

Reference frame: TEME

Reference center: EARTH

Epoch: Dec. 12, 2025, 3:04 a.m. UTC

TLE line 0: 0 HAWK-A

TLE line 1: 1 43765U 18099H 25346.12794311 .00012149 00000-0 53213-3 0 9994

TLE line 2: 2 43765 97.4213 35.8856 0036168 221.0134 138.8381 15.21565834384620

Live tracking on map

Real-time ground track for satellite HAWK-A.

In-orbit conjunctions

There are no conjunctions computed for HAWK-A, at the moment. Check back to stay up to date, as we update our databases every day.

Go to all conjunctions

Associated space launch

Dedicated rideshare launching payloads into sun-synchronous orbit. Payloads include ORS-6, EU:CROPIS, STPSat-5, BlackSky Global-1 to -4, HawkEye Pathfinder 1-3, Iceye, NEXTSat-1, 2 SkySats, Centauri II, and a Flock of Doves.

HAWK-A was lifted into orbit during the mission ‘Falcon 9 Block 5 | Spaceflight SSO-A’, on board a Falcon 9 space rocket.

The launch took place on Dec. 3, 2018, 6:34 p.m. from Space Launch Complex 4E.

For more information about the launch, click the button.

Launch to space Falcon 9 Block 5 | Spaceflight SSO-A
Falcon 9 Block 5 | Spaceflight SSO-A

Agency: N/A

Status: Launch Successful

Launch date: Dec. 3, 2018, 6:34 p.m. UTC

Rocket: Falcon 9

Launch pad: Space Launch Complex 4E

Location: Vandenberg SFB, CA, USA

...

Latest news about this satellite

There are no fresh news available about this satellite. Check back as we update our databases every day.


Newsletter sign-up

Weekly statistics, charts and insights to help you stay on top of the space industry.